Location: Unspecified
(44.0704°N, 88.6889°W)
Time: 22:48:07
(UTC+02:00)

Transit 2A - Pass Details

Date: 25 June 2019
Orbit: 594 x 965 km, 66.7° (Epoch: 17 July)

Event Time Altitude Azimuth Distance (km) Brightness Sun altitude
Rises 14:26:48 0° 333° (NNW) 3,497 9.3 21.1°
Reaches altitude 10° 14:30:08 10° 351° (N) 2,488 8.8 21.7°
Maximum altitude 14:34:12 20° 36° (NE) 1,818 8.9 22.4°
Drops below altitude 10° 14:38:00 10° 82° (E) 2,299 10.6 23.1°
Sets 14:40:55 0° 100° (E) 3,147 10.4 23.6°
